Clovis, NM

7:12 AM MST on December 17, 2017 (GMT -0700)
Clovis Municipal

Weather History for KCVN - January, 2014

Change the Weather History Date:

Tuesday, January 21, 2014

  Actual Average Record
Temperature  
Mean Temperature 40 °F -  
Max Temperature 60 °F 49 °F 75 °F (1986)
Min Temperature 19 °F 24 °F 1 °F (1930)
Degree Days  
Heating Degree Days 26    
Moisture  
Dew Point 14 °F    
Average Humidity 39    
Maximum Humidity 68    
Minimum Humidity 17    
Precipitation  
Precipitation 0.00 in - - ()
Sea Level Pressure  
Sea Level Pressure 30.30 in    
Wind  
Wind Speed 11 mph (West)    
Max Wind Speed 26 mph    
Max Gust Speed 38 mph    
Visibility 10 miles    
Events      
Averages and records for this station are not official NWS values.
T = Trace of Precipitation, MM = Missing Value Source: NWS Daily Summary

Daily Weather History Graph

Daily Weather History Graph

Search for Another Location

Airport or City:

Trip Planner

Search our weather history database for the weather conditions in past years. The results will help you decide how hot, cold, wet, or windy it might be!

Date:

Astronomy

Jan. 21, 2014 Rise Set
Actual Time 6:56 AM MST 5:11 PM MST
Civil Twilight 6:29 AM MST 5:38 PM MST
Nautical Twilight 5:58 AM MST 6:08 PM MST
Astronomical Twilight 5:28 AM MST 6:38 PM MST
Moon 10:29 PM MST (1/21) 9:42 AM MST (1/21)
Length of Visible Light 11h 08m
Length of Day
10h 14m
Waning Gibbous, 74% of the Moon is Illuminated
Jan 21
Waning Gibbous
Jan 23
Last Quarter
Jan 30
New
Feb 6
First Quarter
Feb 14
Full

Hourly Weather History & Observations

Time (MST) Temp. Windchill Dew Point Humidity Pressure Visibility Wind Dir Wind Speed Gust Speed Precip Events Conditions
12:15 AM 26.6 °F 19.1 °F 12.2 °F 55% 30.45 in 10.0 mi NW 6.9 mph - N/A   Clear
12:35 AM 26.6 °F 20.0 °F 10.4 °F 51% 30.45 in 10.0 mi NNW 5.8 mph - N/A   Clear
12:55 AM 26.6 °F 21.2 °F 10.4 °F 51% 30.45 in 10.0 mi NNW 4.6 mph - N/A   Clear
1:15 AM 26.6 °F 20.0 °F 10.4 °F 51% 30.45 in 10.0 mi NNW 5.8 mph - N/A   Clear
1:35 AM 26.6 °F 18.2 °F 12.2 °F 55% 30.45 in 10.0 mi NNW 8.1 mph - N/A   Clear
1:55 AM 26.6 °F 18.2 °F 12.2 °F 55% 30.46 in 10.0 mi NNW 8.1 mph - N/A   Clear
2:15 AM 24.8 °F 16.1 °F 10.4 °F 54% 30.46 in 10.0 mi NW 8.1 mph - N/A   Clear
2:35 AM 24.8 °F 17.9 °F 10.4 °F 54% 30.46 in 10.0 mi NNW 5.8 mph - N/A   Clear
2:55 AM 24.8 °F 20.5 °F 10.4 °F 54% 30.46 in 10.0 mi NW 3.5 mph - N/A   Clear
3:15 AM 23.0 °F 15.8 °F 8.6 °F 54% 30.46 in 10.0 mi NW 5.8 mph - N/A   Clear
3:35 AM 21.2 °F 13.6 °F 10.4 °F 63% 30.46 in 10.0 mi NW 5.8 mph - N/A   Clear
3:55 AM 21.2 °F 16.4 °F 8.6 °F 58% 30.46 in 10.0 mi NNW 3.5 mph - N/A   Clear
4:15 AM 21.2 °F 13.6 °F 10.4 °F 63% 30.45 in 10.0 mi NNW 5.8 mph - N/A   Clear
4:35 AM 21.2 °F 16.4 °F 10.4 °F 63% 30.45 in 10.0 mi NW 3.5 mph - N/A   Clear
4:55 AM 21.2 °F 13.6 °F 8.6 °F 58% 30.45 in 10.0 mi WNW 5.8 mph - N/A   Clear
5:15 AM 19.4 °F 10.4 °F 10.4 °F 68% 30.45 in 10.0 mi NW 6.9 mph - N/A   Clear
5:35 AM 19.4 °F 10.4 °F 8.6 °F 63% 30.45 in 10.0 mi WNW 6.9 mph - N/A   Clear
5:55 AM 19.4 °F 9.5 °F 10.4 °F 68% 30.45 in 10.0 mi West 8.1 mph - N/A   Clear
6:15 AM 21.2 °F 16.4 °F 10.4 °F 63% 30.44 in 10.0 mi WSW 3.5 mph - N/A   Clear
6:35 AM 23.0 °F 17.0 °F 10.4 °F 59% 30.45 in 10.0 mi West 4.6 mph - N/A   Clear
6:55 AM 21.2 °F 12.6 °F 10.4 °F 63% 30.44 in 10.0 mi WSW 6.9 mph - N/A   Clear
7:15 AM 23.0 °F 13.9 °F 10.4 °F 59% 30.43 in 10.0 mi SW 8.1 mph - N/A   Clear
7:35 AM 24.8 °F 20.5 °F 14.0 °F 64% 30.43 in 10.0 mi SW 3.5 mph - N/A   Clear
7:55 AM 28.4 °F 22.2 °F 15.8 °F 59% 30.43 in 10.0 mi WSW 5.8 mph - N/A   Clear
8:15 AM 33.8 °F 28.6 °F 15.8 °F 48% 30.43 in 10.0 mi WSW 5.8 mph - N/A   Clear
8:35 AM 37.4 °F 30.8 °F 17.6 °F 45% 30.43 in 10.0 mi WSW 9.2 mph - N/A   Clear
8:55 AM 39.2 °F 32.0 °F 17.6 °F 42% 30.43 in 10.0 mi WSW 11.5 mph - N/A   Clear
9:15 AM 42.8 °F 35.8 °F 17.6 °F 36% 30.42 in 10.0 mi WSW 13.8 mph - N/A   Clear
9:35 AM 44.6 °F 36.6 °F 17.6 °F 34% 30.41 in 10.0 mi WSW 19.6 mph - N/A   Clear
9:55 AM 46.4 °F 38.5 °F 19.4 °F 34% 30.40 in 10.0 mi WSW 21.9 mph 27.6 mph N/A   Clear
10:15 AM 48.2 °F - 19.4 °F 32% 30.39 in 10.0 mi SW 25.3 mph - N/A   Clear
10:35 AM 50.0 °F - 19.4 °F 30% 30.38 in 10.0 mi SW 24.2 mph 29.9 mph N/A   Clear
10:55 AM 51.8 °F - 19.4 °F 28% 30.36 in 10.0 mi SW 25.3 mph 32.2 mph N/A   Clear
11:15 AM 53.6 °F - 21.2 °F 28% 30.34 in 10.0 mi WSW 25.3 mph 36.8 mph N/A   Clear
11:35 AM 53.6 °F - 19.4 °F 26% 30.33 in 10.0 mi WSW 26.5 mph 32.2 mph N/A   Clear
11:55 AM 55.4 °F - 19.4 °F 25% 30.31 in 10.0 mi WSW 25.3 mph 33.4 mph N/A   Clear
12:15 PM 55.4 °F - 17.6 °F 23% 30.29 in 10.0 mi WSW 26.5 mph 38.0 mph N/A   Clear
12:35 PM 57.2 °F - 17.6 °F 21% 30.27 in 10.0 mi WSW 23.0 mph 33.4 mph N/A   Clear
12:55 PM 57.2 °F - 17.6 °F 21% 30.26 in 10.0 mi WSW 24.2 mph 32.2 mph N/A   Clear
1:15 PM 57.2 °F - 17.6 °F 21% 30.24 in 10.0 mi WSW 26.5 mph 32.2 mph N/A   Clear
1:35 PM 57.2 °F - 17.6 °F 21% 30.23 in 10.0 mi WSW 25.3 mph 33.4 mph N/A   Clear
1:55 PM 59.0 °F - 17.6 °F 20% 30.21 in 10.0 mi WSW 23.0 mph 33.4 mph N/A   Clear
2:15 PM 60.8 °F - 17.6 °F 19% 30.20 in 10.0 mi West 23.0 mph 31.1 mph N/A   Clear
2:35 PM 60.8 °F - 15.8 °F 17% 30.20 in 10.0 mi WSW 19.6 mph 27.6 mph N/A   Clear
2:55 PM 60.8 °F - 15.8 °F 17% 30.20 in 10.0 mi WSW 20.7 mph 25.3 mph N/A   Clear
3:15 PM 60.8 °F - 15.8 °F 17% 30.19 in 10.0 mi WSW 20.7 mph 25.3 mph N/A   Clear
3:35 PM 60.8 °F - 15.8 °F 17% 30.19 in 10.0 mi WSW 19.6 mph 26.5 mph N/A   Clear
3:55 PM 59.0 °F - 15.8 °F 19% 30.19 in 10.0 mi WSW 17.3 mph 25.3 mph N/A   Clear
4:15 PM 57.2 °F - 15.8 °F 20% 30.18 in 10.0 mi WSW 18.4 mph - N/A   Clear
4:35 PM 55.4 °F - 15.8 °F 21% 30.18 in 10.0 mi WSW 16.1 mph - N/A   Clear
4:55 PM 53.6 °F - 15.8 °F 22% 30.18 in 10.0 mi WSW 9.2 mph - N/A   Clear
5:15 PM 48.2 °F - 14.0 °F 25% 30.17 in 10.0 mi WSW 12.7 mph - N/A   Clear
5:35 PM 46.4 °F 41.1 °F 14.0 °F 27% 30.17 in 10.0 mi WSW 11.5 mph - N/A   Clear
5:55 PM 42.8 °F 38.0 °F 12.2 °F 29% 30.17 in 10.0 mi WSW 8.1 mph - N/A   Clear
6:15 PM 42.8 °F 38.0 °F 12.2 °F 29% 30.17 in 10.0 mi WSW 8.1 mph - N/A   Clear
6:35 PM 42.8 °F 36.6 °F 14.0 °F 31% 30.16 in 10.0 mi WSW 11.5 mph - N/A   Clear
6:55 PM 44.6 °F 37.8 °F 15.8 °F 31% 30.16 in 10.0 mi WSW 15.0 mph - N/A   Clear
7:15 PM 44.6 °F 38.1 °F 14.0 °F 29% 30.15 in 10.0 mi WSW 13.8 mph - N/A   Clear
7:35 PM 44.6 °F 38.1 °F 14.0 °F 29% 30.15 in 10.0 mi WSW 13.8 mph - N/A   Clear
7:55 PM 42.8 °F 35.8 °F 14.0 °F 31% 30.14 in 10.0 mi WSW 13.8 mph - N/A   Clear
8:15 PM 42.8 °F 35.4 °F 14.0 °F 31% 30.14 in 10.0 mi WSW 15.0 mph - N/A   Clear
8:35 PM 39.2 °F 31.2 °F 14.0 °F 36% 30.14 in 10.0 mi WSW 13.8 mph - N/A   Clear
8:55 PM 39.2 °F 31.6 °F 14.0 °F 36% 30.13 in 10.0 mi WSW 12.7 mph - N/A   Clear
9:15 PM 39.2 °F 31.6 °F 14.0 °F 36% 30.13 in 10.0 mi WSW 12.7 mph - N/A   Clear
9:35 PM 37.4 °F 28.9 °F 12.2 °F 36% 30.13 in 10.0 mi WSW 13.8 mph - N/A   Clear
9:55 PM 35.6 °F 27.5 °F 12.2 °F 38% 30.13 in 10.0 mi WSW 11.5 mph - N/A   Clear
10:15 PM 35.6 °F 28.0 °F 12.2 °F 38% 30.13 in 10.0 mi WSW 10.4 mph - N/A   Clear
10:35 PM 35.6 °F 27.5 °F 12.2 °F 38% 30.12 in 10.0 mi West 11.5 mph - N/A   Clear
10:55 PM 37.4 °F 29.3 °F 12.2 °F 36% 30.11 in 10.0 mi West 12.7 mph - N/A   Clear
11:15 PM 37.4 °F 29.3 °F 10.4 °F 33% 30.11 in 10.0 mi West 12.7 mph - N/A   Clear
11:35 PM 37.4 °F 29.8 °F 10.4 °F 33% 30.10 in 10.0 mi WSW 11.5 mph - N/A   Clear
11:55 PM 35.6 °F 28.0 °F 8.6 °F 33% 30.10 in 10.0 mi West 10.4 mph - N/A   Clear